National Weather Service Hourly Weather Roundup
NOAA NWS Hourly Roundups by Site
NOAA NWS Hourly Roundups by Site
Regional Weather Roundup for Sacramento, CA

To Select Another Site Choose from List

Select Site:  

000
ASUS46 KSTO 242115
RWRCA

NORTHERN AND CENTRAL CA REGIONAL WEATHER ROUNDUP
NATIONAL WEATHER SERVICE SACRAMENTO CA
200 PM PDT SUN OCT 24 2021

NOTE: FAIR INDICATES FEW OR NO CLOUDS BELOW 12,000 FEET WITH NO
SIGNIFICANT WEATHER AND/OR OBSTRUCTIONS TO VISIBILITY.

CAZ001-003-242200-
NORTHWEST AREA

CITY           SKY/WX    TMP DP  RH WIND       PRES   REMARKS
CRESCENT CITY  CLOUDY    58  51  78 S24G40    29.33S HAZE
UKIAH          RAIN      55  52  89 SE7       29.53F FOG
$$

CAZ006-505>513-242200-
BAY AREA

CITY           SKY/WX    TMP DP  RH WIND       PRES   REMARKS
SANTA ROSA     HVY RAIN  55  55 100 S3        29.57F FOG
SAN RAFAEL     N/A       60  MM  MM MISG
NAPA           HVY RAIN  60  59  96 W16G32    29.58R FOG
CONCORD        RAIN      63  60  90 S17       29.57F FOG
OAKLAND CITY   N/A       62  MM  MM MISG
OAKLAND        LGT RAIN  64  60  87 S26G37    29.60F FOG
SAN FRAN CITY  N/A       62  MM  94 MISG
SAN FRAN ARPT  LGT RAIN  63  60  90 S35G49    29.57F FOG
LIVERMORE      RAIN      63  59  87 S25G39    29.59F FOG
HAYWARD        LGT RAIN  61  59  93 S20       29.61F FOG
SAN JOSE ARPT  LGT RAIN  64  59  83 S14G30    29.66F
$$
CAZ034-037-514>518-242200-
CENTRAL COAST

CITY           SKY/WX    TMP DP  RH WIND       PRES   REMARKS
WATSONVILLE    CLOUDY    62  59  90 SW26G44   29.73F
SALINAS        CLOUDY    73  55  53 S13       29.71F
MONTEREY       CLOUDY    68  58  70 S20G30    29.74F
SAN LUIS OBISP CLOUDY    63  55  75 S15G21    29.90S
SANTA MARIA    CLOUDY    68  54  60 SW14      29.89F
HALF MOON BAY  LGT RAIN  59  59 100 S31G41    29.62F VSB 1/4
$$
CAZ015-016-242200-
NORTHERN SACRAMENTO VALLEY

CITY           SKY/WX    TMP DP  RH WIND       PRES   REMARKS
REDDING        CLOUDY    57  54  89 S24G35    29.40F
RED BLUFF      LGT RAIN  57  55  93 SE29G40   29.42F
OROVILLE       HVY RAIN  58  54  86 S28G38    29.57R FOG
$$
CAZ016>018-242200-
SOUTHERN SACRAMENTO VALLEY

CITY           SKY/WX    TMP DP  RH WIND       PRES   REMARKS
AUBURN         FOG       54  54 100 S15G29    29.62F VSB 1
BEALE AFB      RAIN      55  55 100 S18G32    29.57R FOG
LINCOLN        CLOUDY    55  55 100 S28G39    29.56F
MARYSVILLE       N/A    N/A N/A N/A MISG      29.59R
SAC INTL ARPT  RAIN      59  56  89 S23G35    29.55F FOG
MATHER AIRPORT NOT AVBL
DOWNTOWN SAC   N/A       58  MM  MM MISG
SAC EXEC ARPT  HVY RAIN  58  57  97 S14G23    29.59S FOG
VACAVILLE      HVY RAIN  61  60  97 S16G31    29.56F VSB 1
TRAVIS AFB     CLOUDY    61  61 100 S21G28    29.56F FOG
$$
CAZ019>021-242200-
SAN JOAQUIN VALLEY

CITY           SKY/WX    TMP DP  RH WIND       PRES   REMARKS
STOCKTON       LGT RAIN  63  55  75 S28G35    29.63F
MODESTO        LGT RAIN  64  54  69 SE17G28   29.67F
MERCED         CLOUDY    69  49  48 SE18G29   29.73F
FRESNO         CLOUDY    68  47  46 SE17      29.82F
HANFORD        CLOUDY    71  47  42 SE8       29.83F
PORTERVILLE    CLOUDY    72  47  40 E7        29.84F
BAKERSFIELD    CLOUDY    78  45  30 MISG      29.82F
$$
CAZ011-012-071-242200-
NORTHERN MOUNTAINS

CITY           SKY/WX    TMP DP  RH WIND       PRES   REMARKS
YREKA          LGT RAIN  54  45  71 S14       29.35R
MOUNT SHASTA   LGT RAIN  48  44  86 VRB3      29.37F FOG
ALTURAS        RAIN      47  43  86 S16       29.46F FOG
$$
CAZ011-012-071-242200-
SIERRA NEVADA MTNS

CITY           SKY/WX    TMP DP  RH WIND       PRES   REMARKS
BLUE CANYON    HVY RAIN  45  45 100 S24G36    29.63F VSB 1/4
TRUCKEE        CLOUDY    48  45  87 S14G21    29.60F
TAHOE VLY ARPT HVY RAIN  48  43  82 S20G29    29.60F
MAMMOTH LAKES  DRIZZLE   54  39  58 SW25G35   29.83S
$$


 

View Past Reports for Sacramento, CA.

Products Courtesy of NOAA-NWS
NWS Information Parsing Script by Ken True at Saratoga Weather - Script by SE Lincoln Weather.

powered by Cumulus v1.9.3 (1059)
Ambient Weather VWS v14.00
Top Website Map Copyright © 2007 - 2021 Foresthillweather.com Never base important decisions on this or any weather information obtained from the Internet